P/2020 O1 ( Lemmon-PanSTARRS ) 2024

Japanese version
Home page
Updated on December 10, 2022

---------------------------------------------------------------------

* Profile

* Orbital Elements

Epoch 2022 Aug. 9.0 TT = JDT 2459800.5                                          
T 2024 Aug. 20.67309 TT                                 Rudenko                 
q   2.3299437            (2000.0)            P               Q                  
n   0.22911805     Peri.  104.55710     +0.18306967     +0.98307916             
a   2.6450254      Node   175.97505     -0.93340832     +0.17585380             
e   0.1191224      Incl.    5.22555     -0.30860071     +0.05129144             
P   4.30                                                                        
From 85 observations 2020 June 27-2021 July 22, mean residual 0".4.             

* Magnitudes Graph

        m1 = 15.5 + 5 log d + 10.0 log r

---------------------------------------------------------------------

The orbital elements are published on M.P.E.C. 2022-P114.
The magnitudes graphs are made with Comet for Windows.

---------------------------------------------------------------------

Copyright(C) Seiichi Yoshida (comet@aerith.net). All rights reserved.